| time (UTC) | temp F | wind direction | speed MPH | gust MPH | rain 1hr in | rain 24hr in | rain mn in | humidity % | barometer mb |
| 20260906143039 | 72 | 94 | 3.0 | 6.0 | 0.00 | 0.00 | 0.00 | 73 | 1014.5 |
| 20260906142540 | 72 | 99 | 3.0 | 6.0 | 0.00 | 0.00 | 0.00 | 74 | 1014.5 |
| 20260906142039 | 72 | 57 | 2.0 | 8.0 | 0.00 | 0.00 | 0.00 | 76 | 1014.5 |
| 20260906141547 | 71 | 148 | 3.0 | 8.0 | 0.00 | 0.00 | 0.00 | 76 | 1014.5 |
| 20260906140537 | 71 | 109 | 3.0 | 5.0 | 0.00 | 0.00 | 0.00 | 77 | 1014.4 |
| 20260906135532 | 70 | 128 | 3.0 | 5.0 | 0.00 | 0.00 | 0.00 | 79 | 1014.4 |
| 20260906135035 | 70 | 344 | 2.0 | 4.0 | 0.00 | 0.00 | 0.00 | 79 | 1014.4 |
| 20260906134601 | 69 | 105 | 1.0 | 4.0 | 0.00 | 0.00 | 0.00 | 80 | 1014.4 |
| 20260906133528 | 68 | 355 | 2.0 | 5.0 | 0.00 | 0.00 | 0.00 | 81 | 1014.3 |
| 20260906133048 | 68 | 51 | 2.0 | 7.0 | 0.00 | 0.00 | 0.00 | 81 | 1014.3 |
| 20260906132041 | 67 | 36 | 1.0 | 4.0 | 0.00 | 0.00 | 0.00 | 82 | 1014.3 |
| 20260906131029 | 67 | 76 | 2.0 | 5.0 | 0.00 | 0.00 | 0.00 | 83 | 1014.1 |
| 20260906130559 | 66 | 132 | 2.0 | 4.0 | 0.00 | 0.00 | 0.00 | 83 | 1014.1 |
| 20260906130119 | 66 | 155 | 1.0 | 5.0 | 0.00 | 0.00 | 0.00 | 84 | 1014.1 |
| 20260906125554 | 66 | 154 | 3.0 | 7.0 | 0.00 | 0.00 | 0.00 | 84 | 1014.0 |
| 20260906125123 | 65 | 42 | 2.0 | 7.0 | 0.00 | 0.00 | 0.00 | 84 | 1014.0 |
| 20260906124609 | 65 | 103 | 3.0 | 7.0 | 0.00 | 0.00 | 0.00 | 85 | 1014.0 |
| 20260906123516 | 63 | 104 | 0.0 | 5.0 | 0.00 | 0.00 | 0.00 | 87 | 1014.0 |
| 20260906123028 | 63 | 114 | 1.0 | 4.0 | 0.00 | 0.00 | 0.00 | 88 | 1014.0 |
| 20260906122535 | 63 | 120 | 1.0 | 7.0 | 0.00 | 0.00 | 0.00 | 88 | 1013.7 |
| 20260906121534 | 62 | 130 | 1.0 | 4.0 | 0.00 | 0.00 | 0.00 | 88 | 1013.7 |
| 20260906120026 | 61 | 97 | 2.0 | 5.0 | 0.00 | 0.00 | 0.00 | 88 | 1013.5 |
| 20260906115556 | 61 | 360 | 1.0 | 2.0 | 0.00 | 0.06 | 0.00 | 88 | 1013.3 |
| 20260906115109 | 61 | 360 | 0.0 | 2.0 | 0.00 | 0.06 | 0.00 | 88 | 1013.3 |
| 20260906114524 | 61 | 355 | 0.0 | 2.0 | 0.00 | 0.06 | 0.00 | 88 | 1013.3 |
| 20260906114040 | 61 | 355 | 0.0 | 3.0 | 0.00 | 0.06 | 0.00 | 88 | 1013.3 |
| 20260906113522 | 61 | 360 | 0.0 | 2.0 | 0.00 | 0.06 | 0.00 | 88 | 1013.3 |
| 20260906113030 | 61 | 5 | 0.0 | 2.0 | 0.00 | 0.06 | 0.00 | 87 | 1013.3 |
| 20260906112558 | 61 | 355 | 0.0 | 2.0 | 0.00 | 0.06 | 0.00 | 87 | 1013.2 |
| 20260906112106 | 61 | 355 | 0.0 | 1.0 | 0.00 | 0.06 | 0.00 | 87 | 1013.2 |
| 20260906110525 | 61 | 355 | 0.0 | 3.0 | 0.00 | 0.06 | 0.00 | 87 | 1013.2 |
| 20260906105528 | 61 | 32 | 0.0 | 3.0 | 0.00 | 0.17 | 0.00 | 86 | 1013.1 |
| 20260906105056 | 61 | 32 | 0.0 | 3.0 | 0.00 | 0.17 | 0.00 | 86 | 1013.1 |
| 20260906104548 | 61 | 34 | 1.0 | 3.0 | 0.00 | 0.17 | 0.00 | 86 | 1013.1 |
| 20260906103522 | 62 | 355 | 0.0 | 2.0 | 0.00 | 0.17 | 0.00 | 85 | 1013.0 |
| 20260906102536 | 62 | 347 | 0.0 | 2.0 | 0.00 | 0.17 | 0.00 | 85 | 1012.9 |
| 20260906101526 | 62 | 329 | 0.0 | 3.0 | 0.00 | 0.17 | 0.00 | 85 | 1012.9 |
| 20260906101059 | 62 | 30 | 0.0 | 4.0 | 0.00 | 0.17 | 0.00 | 85 | 1012.8 |
| 20260906100038 | 62 | 351 | 1.0 | 4.0 | 0.00 | 0.17 | 0.00 | 84 | 1012.8 |
| 20260906095021 | 62 | 42 | 1.0 | 4.0 | 0.00 | 0.36 | 0.00 | 84 | 1012.8 |
| 20260906094530 | 62 | 328 | 1.0 | 4.0 | 0.00 | 0.36 | 0.00 | 84 | 1012.8 |
| 20260906094105 | 62 | 39 | 0.0 | 4.0 | 0.00 | 0.36 | 0.00 | 84 | 1012.7 |
| 20260906093615 | 62 | 55 | 0.0 | 4.0 | 0.00 | 0.36 | 0.00 | 84 | 1012.7 |
| 20260906092538 | 63 | 9 | 1.0 | 5.0 | 0.00 | 0.36 | 0.00 | 84 | 1012.8 |
| 20260906092104 | 63 | 5 | 1.0 | 5.0 | 0.00 | 0.36 | 0.00 | 84 | 1012.8 |
| 20260906091023 | 63 | 21 | 1.0 | 3.0 | 0.00 | 0.36 | 0.00 | 83 | 1012.6 |
| 20260906090525 | 63 | 46 | 0.0 | 3.0 | 0.00 | 0.36 | 0.00 | 83 | 1012.6 |
| 20260906090039 | 63 | 48 | 1.0 | 2.0 | 0.00 | 0.36 | 0.00 | 83 | 1012.6 |
| 20260906085549 | 63 | 49 | 0.0 | 4.0 | 0.00 | 0.46 | 0.00 | 83 | 1012.5 |
| 20260906085100 | 63 | 13 | 0.0 | 3.0 | 0.00 | 0.46 | 0.00 | 83 | 1012.5 |
| 20260906084611 | 63 | 13 | 1.0 | 6.0 | 0.00 | 0.46 | 0.00 | 83 | 1012.5 |
| 20260906084108 | 63 | 351 | 0.0 | 2.0 | 0.00 | 0.46 | 0.00 | 83 | 1012.6 |
| 20260906083559 | 64 | 355 | 0.0 | 3.0 | 0.00 | 0.46 | 0.00 | 83 | 1012.6 |
| 20260906082541 | 64 | 311 | 0.0 | 2.0 | 0.00 | 0.46 | 0.00 | 83 | 1012.5 |
| 20260906082103 | 64 | 311 | 1.0 | 2.0 | 0.00 | 0.46 | 0.00 | 83 | 1012.5 |
| 20260906081613 | 64 | 287 | 0.0 | 2.0 | 0.00 | 0.46 | 0.00 | 82 | 1012.5 |
| 20260906081112 | 64 | 287 | 0.0 | 2.0 | 0.00 | 0.46 | 0.00 | 82 | 1012.5 |
| 20260906080613 | 64 | 287 | 0.0 | 1.0 | 0.00 | 0.46 | 0.00 | 82 | 1012.5 |
| 20260906080019 | 64 | 286 | 0.0 | 3.0 | 0.00 | 0.46 | 0.00 | 82 | 1012.5 |
| 20260906075548 | 64 | 287 | 0.0 | 3.0 | 0.00 | 0.73 | 0.00 | 82 | 1012.4 |
| 20260906074532 | 65 | 54 | 1.0 | 2.0 | 0.00 | 0.73 | 0.00 | 81 | 1012.4 |
| 20260906073534 | 65 | 54 | 0.0 | 3.0 | 0.00 | 0.73 | 0.00 | 80 | 1012.3 |
| 20260906073055 | 66 | 54 | 1.0 | 3.0 | 0.00 | 0.73 | 0.00 | 80 | 1012.3 |
| 20260906072608 | 66 | 70 | 0.0 | 2.0 | 0.00 | 0.73 | 0.00 | 80 | 1012.2 |
| 20260906072109 | 66 | 70 | 0.0 | 2.0 | 0.00 | 0.73 | 0.00 | 79 | 1012.2 |
| 20260906071033 | 67 | 70 | 0.0 | 1.0 | 0.00 | 0.73 | 0.00 | 79 | 1012.2 |
| 20260906070545 | 67 | 70 | 0.0 | 3.0 | 0.00 | 0.73 | 0.00 | 79 | 1012.2 |
| 20260906070050 | 67 | 70 | 1.0 | 3.0 | 0.00 | 0.73 | 0.00 | 78 | 1012.2 |
| 20260906065033 | 68 | 53 | 0.0 | 3.0 | 0.00 | 0.73 | 0.00 | 78 | 1012.3 |
| 20260906064556 | 68 | 42 | 1.0 | 3.0 | 0.00 | 0.73 | 0.00 | 78 | 1012.3 |
| 20260906064049 | 68 | 54 | 0.0 | 3.0 | 0.00 | 0.73 | 0.00 | 78 | 1012.3 |
| 20260906063028 | 68 | 62 | 0.0 | 3.0 | 0.00 | 0.73 | 0.00 | 78 | 1012.3 |
| 20260906062547 | 68 | 63 | 0.0 | 4.0 | 0.00 | 0.73 | 0.00 | 77 | 1012.3 |
| 20260906061526 | 68 | 21 | 1.0 | 4.0 | 0.00 | 0.73 | 0.00 | 78 | 1012.3 |
| 20260906061040 | 68 | 355 | 0.0 | 4.0 | 0.00 | 0.73 | 0.00 | 78 | 1012.2 |
| 20260906060554 | 68 | 355 | 0.0 | 4.0 | 0.00 | 0.73 | 0.00 | 78 | 1012.2 |
| 20260906060019 | 68 | 124 | 0.0 | 2.0 | 0.00 | 0.73 | 0.00 | 79 | 1012.2 |
| 20260906055541 | 68 | 124 | 0.0 | 2.0 | 0.00 | 0.73 | 0.00 | 79 | 1012.1 |
| 20260906055024 | 68 | 125 | 0.0 | 3.0 | 0.00 | 0.73 | 0.00 | 79 | 1012.1 |
| 20260906054519 | 68 | 125 | 1.0 | 3.0 | 0.00 | 0.73 | 0.00 | 79 | 1012.1 |
| 20260906054042 | 68 | 125 | 1.0 | 3.0 | 0.00 | 0.73 | 0.00 | 80 | 1011.8 |
| 20260906053546 | 68 | 101 | 0.0 | 4.0 | 0.00 | 0.73 | 0.00 | 80 | 1011.8 |
| 20260906053102 | 68 | 85 | 1.0 | 4.0 | 0.00 | 0.73 | 0.00 | 80 | 1011.8 |
| 20260906052527 | 68 | 144 | 0.0 | 2.0 | 0.00 | 0.73 | 0.00 | 81 | 1011.8 |
| 20260906052050 | 68 | 151 | 0.0 | 3.0 | 0.00 | 0.73 | 0.00 | 81 | 1011.8 |
| 20260906051516 | 68 | 156 | 1.0 | 3.0 | 0.00 | 0.73 | 0.00 | 81 | 1011.8 |
| 20260906051023 | 68 | 101 | 1.0 | 3.0 | 0.00 | 0.73 | 0.00 | 82 | 1011.7 |
| 20260906050540 | 68 | 94 | 0.0 | 3.0 | 0.00 | 0.73 | 0.00 | 82 | 1011.7 |
| 20260906050108 | 68 | 116 | 1.0 | 6.0 | 0.00 | 0.73 | 0.00 | 82 | 1011.7 |
| 20260906045536 | 68 | 121 | 1.0 | 6.0 | 0.00 | 0.73 | 0.00 | 82 | 1011.7 |
| 20260906045029 | 68 | 117 | 1.0 | 5.0 | 0.00 | 0.73 | 0.00 | 83 | 1011.7 |
| 20260906044515 | 68 | 36 | 0.0 | 2.0 | 0.00 | 0.73 | 0.00 | 83 | 1011.7 |
| 20260906044108 | 68 | 92 | 0.0 | 3.0 | 0.00 | 0.73 | 0.00 | 83 | 1011.6 |
| 20260906043527 | 68 | 92 | 0.0 | 3.0 | 0.00 | 0.73 | 0.00 | 83 | 1011.6 |
| 20260906043019 | 68 | 93 | 0.0 | 3.0 | 0.00 | 0.73 | 0.00 | 83 | 1011.6 |
| 20260906042531 | 68 | 118 | 0.0 | 2.0 | 0.00 | 0.73 | 0.00 | 83 | 1011.7 |
| 20260906042032 | 69 | 118 | 0.0 | 3.0 | 0.00 | 0.73 | 0.00 | 83 | 1011.7 |
| 20260906041520 | 69 | 118 | 0.0 | 2.0 | 0.00 | 0.73 | 0.00 | 83 | 1011.7 |
| 20260906041029 | 69 | 118 | 0.0 | 1.0 | 0.00 | 0.73 | 0.00 | 83 | 1011.7 |
| 20260906040555 | 69 | 118 | 0.0 | 2.0 | 0.00 | 0.73 | 0.00 | 83 | 1011.7 |
| 20260906040044 | 69 | 118 | 0.0 | 2.0 | 0.00 | 0.73 | 0.00 | 83 | 1011.7 |
| 20260906035521 | 69 | 118 | 0.0 | 2.0 | 0.00 | 0.73 | 0.73 | 83 | 1011.7 |
| 20260906035035 | 69 | 123 | 0.0 | 1.0 | 0.00 | 0.73 | 0.73 | 83 | 1011.7 |
| 20260906034550 | 69 | 123 | 0.0 | 1.0 | 0.00 | 0.73 | 0.73 | 83 | 1011.7 |
| 20260906034102 | 70 | 123 | 0.0 | 2.0 | 0.00 | 0.73 | 0.73 | 83 | 1011.7 |
| 20260906033606 | 70 | 123 | 0.0 | 2.0 | 0.00 | 0.73 | 0.73 | 83 | 1011.7 |
| 20260906032535 | 70 | 38 | 0.0 | 2.0 | 0.00 | 0.73 | 0.73 | 82 | 1011.6 |
| 20260906031528 | 70 | 61 | 0.0 | 3.0 | 0.00 | 0.73 | 0.73 | 82 | 1011.6 |
| 20260906030537 | 71 | 53 | 1.0 | 5.0 | 0.00 | 0.73 | 0.73 | 83 | 1011.7 |
| 20260906025531 | 71 | 47 | 0.0 | 4.0 | 0.00 | 0.73 | 0.73 | 84 | 1011.7 |
| 20260906024538 | 71 | 67 | 0.0 | 3.0 | 0.00 | 0.73 | 0.73 | 84 | 1011.7 |
| 20260906024053 | 72 | 122 | 1.0 | 4.0 | 0.00 | 0.73 | 0.73 | 84 | 1011.5 |
| 20260906023020 | 72 | 97 | 1.0 | 4.0 | 0.00 | 0.73 | 0.73 | 84 | 1011.5 |
| 20260906022533 | 72 | 117 | 1.0 | 5.0 | 0.00 | 0.73 | 0.73 | 84 | 1011.5 |
| 20260906022040 | 72 | 115 | 2.0 | 5.0 | 0.00 | 0.73 | 0.73 | 84 | 1011.5 |
| 20260906021027 | 73 | 105 | 1.0 | 6.0 | 0.00 | 0.73 | 0.73 | 85 | 1011.3 |
| 20260906020538 | 73 | 49 | 3.0 | 5.0 | 0.00 | 0.73 | 0.73 | 85 | 1011.3 |
| 20260906020029 | 73 | 327 | 1.0 | 5.0 | 0.00 | 0.73 | 0.73 | 85 | 1011.3 |
| 20260906015555 | 74 | 33 | 1.0 | 4.0 | 0.00 | 0.73 | 0.73 | 86 | 1011.0 |
| 20260906015112 | 74 | 355 | 2.0 | 4.0 | 0.00 | 0.73 | 0.73 | 86 | 1011.0 |
| 20260906014633 | 74 | 66 | 1.0 | 3.0 | 0.00 | 0.73 | 0.73 | 86 | 1011.0 |
| 20260906014117 | 74 | 66 | 1.0 | 3.0 | 0.00 | 0.73 | 0.73 | 86 | 1010.7 |
| 20260906013035 | 75 | 66 | 2.0 | 5.0 | 0.00 | 0.73 | 0.73 | 85 | 1010.7 |
| 20260906012553 | 75 | 130 | 1.0 | 3.0 | 0.00 | 0.73 | 0.73 | 85 | 1010.6 |
| 20260906012136 | 75 | 78 | 1.0 | 3.0 | 0.00 | 0.73 | 0.73 | 85 | 1010.6 |
| 20260906011522 | 75 | 70 | 1.0 | 4.0 | 0.00 | 0.73 | 0.73 | 85 | 1010.6 |
| 20260906011041 | 75 | 113 | 1.0 | 4.0 | 0.00 | 0.73 | 0.73 | 84 | 1010.4 |
| 20260906010558 | 75 | 65 | 0.0 | 4.0 | 0.00 | 0.73 | 0.73 | 84 | 1010.4 |
| 20260906005531 | 76 | 71 | 1.0 | 3.0 | 0.00 | 0.73 | 0.73 | 84 | 1010.2 |
| 20260906005052 | 76 | 92 | 0.0 | 4.0 | 0.00 | 0.73 | 0.73 | 83 | 1010.2 |
| 20260906004029 | 76 | 17 | 2.0 | 6.0 | 0.00 | 0.73 | 0.73 | 83 | 1010.2 |
| 20260906003547 | 76 | 86 | 2.0 | 7.0 | 0.00 | 0.73 | 0.73 | 83 | 1010.2 |
| 20260906003103 | 77 | 46 | 1.0 | 7.0 | 0.00 | 0.73 | 0.73 | 82 | 1010.2 |
| 20260906002547 | 77 | 9 | 2.0 | 4.0 | 0.00 | 0.73 | 0.73 | 82 | 1010.3 |
| 20260906001528 | 77 | 43 | 2.0 | 5.0 | 0.00 | 0.73 | 0.73 | 81 | 1010.3 |
| 20260906000520 | 78 | 23 | 2.0 | 5.0 | 0.00 | 0.73 | 0.73 | 80 | 1010.2 |
| 20260906000043 | 78 | 34 | 2.0 | 4.0 | 0.00 | 0.73 | 0.73 | 80 | 1010.2 |
| 20260905235017 | 79 | 24 | 2.0 | 5.0 | 0.00 | 0.73 | 0.73 | 79 | 1010.2 |
| 20260905234532 | 79 | 9 | 1.0 | 5.0 | 0.00 | 0.73 | 0.73 | 79 | 1010.2 |
| 20260905234104 | 79 | 333 | 3.0 | 5.0 | 0.00 | 0.73 | 0.73 | 78 | 1010.1 |
| 20260905233616 | 80 | 37 | 2.0 | 5.0 | 0.00 | 0.73 | 0.73 | 78 | 1010.1 |
| 20260905233112 | 80 | 14 | 0.0 | 5.0 | 0.00 | 0.73 | 0.73 | 77 | 1010.1 |
| 20260905232616 | 80 | 31 | 1.0 | 5.0 | 0.00 | 0.73 | 0.73 | 77 | 1009.8 |
| 20260905232032 | 81 | 166 | 1.0 | 3.0 | 0.00 | 0.73 | 0.73 | 77 | 1009.8 |
| 20260905231542 | 81 | 335 | 0.0 | 0.0 | 0.00 | 0.73 | 0.73 | 77 | 1009.8 |
| 20260905231058 | 81 | 335 | 0.0 | 0.0 | 0.00 | 0.73 | 0.73 | 76 | 1009.5 |
| 20260905230522 | 81 | 335 | 0.0 | 2.0 | 0.00 | 0.73 | 0.73 | 76 | 1009.5 |
| 20260905230041 | 81 | 335 | 1.0 | 2.0 | 0.00 | 0.73 | 0.73 | 76 | 1009.5 |
| 20260905225555 | 81 | 335 | 0.0 | 4.0 | 0.00 | 0.73 | 0.73 | 76 | 1009.4 |
| 20260905224538 | 81 | 343 | 3.0 | 6.0 | 0.00 | 0.73 | 0.73 | 75 | 1009.4 |
| 20260905223540 | 82 | 329 | 1.0 | 5.0 | 0.00 | 0.73 | 0.73 | 76 | 1009.2 |
| 20260905223059 | 82 | 329 | 1.0 | 5.0 | 0.00 | 0.73 | 0.73 | 76 | 1009.2 |
| 20260905222600 | 82 | 329 | 1.0 | 5.0 | 0.00 | 0.73 | 0.73 | 76 | 1009.4 |
| 20260905221521 | 81 | 302 | 3.0 | 4.0 | 0.00 | 0.73 | 0.73 | 76 | 1009.4 |
| 20260905221050 | 81 | 321 | 2.0 | 6.0 | 0.00 | 0.73 | 0.73 | 76 | 1009.5 |
| 20260905220021 | 81 | 330 | 2.0 | 4.0 | 0.00 | 0.73 | 0.73 | 75 | 1009.5 |
| 20260905215521 | 82 | 330 | 2.0 | 4.0 | 0.00 | 0.73 | 0.73 | 75 | 1009.5 |
| 20260905215041 | 82 | 328 | 2.0 | 4.0 | 0.00 | 0.73 | 0.73 | 75 | 1009.5 |
| 20260905214546 | 81 | 329 | 2.0 | 5.0 | 0.00 | 0.73 | 0.73 | 74 | 1009.5 |
| 20260905214100 | 81 | 329 | 2.0 | 6.0 | 0.00 | 0.73 | 0.73 | 75 | 1009.5 |
| 20260905213603 | 81 | 328 | 3.0 | 6.0 | 0.00 | 0.73 | 0.73 | 74 | 1009.5 |
| 20260905213117 | 82 | 288 | 3.0 | 6.0 | 0.00 | 0.73 | 0.73 | 74 | 1009.5 |
| 20260905212534 | 82 | 338 | 1.0 | 4.0 | 0.00 | 0.73 | 0.73 | 75 | 1009.5 |
| 20260905212058 | 81 | 338 | 2.0 | 5.0 | 0.00 | 0.73 | 0.73 | 74 | 1009.5 |
| 20260905211602 | 82 | 338 | 2.0 | 5.0 | 0.00 | 0.73 | 0.73 | 74 | 1009.5 |
| 20260905210518 | 82 | 347 | 3.0 | 6.0 | 0.00 | 0.73 | 0.73 | 74 | 1009.5 |
| 20260905210028 | 82 | 348 | 3.0 | 6.0 | 0.00 | 0.73 | 0.73 | 74 | 1009.5 |
| 20260905205555 | 82 | 341 | 1.0 | 5.0 | 0.00 | 0.73 | 0.73 | 74 | 1009.6 |
| 20260905205047 | 82 | 297 | 2.0 | 5.0 | 0.00 | 0.73 | 0.73 | 73 | 1009.6 |
| 20260905204553 | 82 | 5 | 2.0 | 4.0 | 0.00 | 0.73 | 0.73 | 75 | 1009.6 |
| 20260905203539 | 81 | 340 | 2.0 | 5.0 | 0.00 | 0.73 | 0.73 | 75 | 1009.8 |
| 20260905203047 | 81 | 292 | 2.0 | 5.0 | 0.00 | 0.73 | 0.73 | 75 | 1009.8 |
| 20260905202603 | 81 | 311 | 3.0 | 5.0 | 0.00 | 0.73 | 0.73 | 75 | 1009.9 |
| 20260905201518 | 81 | 342 | 1.0 | 3.0 | 0.00 | 0.73 | 0.73 | 75 | 1009.9 |
| 20260905201023 | 81 | 311 | 0.0 | 4.0 | 0.00 | 0.73 | 0.73 | 75 | 1010.0 |
| 20260905200549 | 82 | 309 | 2.0 | 4.0 | 0.00 | 0.73 | 0.73 | 75 | 1010.0 |
| 20260905200050 | 82 | 344 | 2.0 | 7.0 | 0.00 | 0.73 | 0.73 | 74 | 1010.0 |
| 20260905195024 | 83 | 65 | 2.0 | 4.0 | 0.00 | 0.73 | 0.73 | 75 | 1010.2 |
| 20260905194525 | 82 | 24 | 1.0 | 4.0 | 0.00 | 0.73 | 0.73 | 75 | 1010.2 |
| 20260905194036 | 82 | 355 | 0.0 | 2.0 | 0.00 | 0.73 | 0.73 | 74 | 1010.2 |
| 20260905193120 | 82 | 355 | 2.0 | 5.0 | 0.00 | 0.73 | 0.73 | 76 | 1010.2 |
| 20260905192608 | 81 | 227 | 2.0 | 7.0 | 0.00 | 0.73 | 0.73 | 75 | 1010.5 |
| 20260905192103 | 81 | 296 | 4.0 | 7.0 | 0.00 | 0.73 | 0.73 | 76 | 1010.5 |
| 20260905191613 | 81 | 360 | 1.0 | 4.0 | 0.00 | 0.73 | 0.73 | 78 | 1010.5 |
| 20260905191135 | 81 | 5 | 2.0 | 4.0 | 0.00 | 0.73 | 0.73 | 77 | 1010.6 |
| 20260905190519 | 80 | 217 | 1.0 | 3.0 | 0.00 | 0.73 | 0.73 | 77 | 1010.6 |
| 20260905190020 | 80 | 291 | 0.0 | 1.0 | 0.00 | 0.73 | 0.73 | 78 | 1010.6 |
| 20260905185527 | 80 | 291 | 0.0 | 5.0 | 0.00 | 0.73 | 0.73 | 78 | 1010.7 |
| 20260905185029 | 80 | 291 | 2.0 | 5.0 | 0.00 | 0.73 | 0.73 | 77 | 1010.7 |
| 20260905184554 | 80 | 336 | 1.0 | 3.0 | 0.00 | 0.73 | 0.73 | 77 | 1010.7 |
| 20260905183532 | 80 | 333 | 2.0 | 5.0 | 0.00 | 0.73 | 0.73 | 76 | 1010.7 |
| 20260905183051 | 81 | 334 | 1.0 | 3.0 | 0.00 | 0.73 | 0.73 | 77 | 1010.7 |
| 20260905182554 | 81 | 334 | 1.0 | 5.0 | 0.00 | 0.73 | 0.73 | 77 | 1010.7 |
| 20260905182113 | 81 | 5 | 3.0 | 5.0 | 0.00 | 0.73 | 0.73 | 77 | 1010.7 |
| 20260905181528 | 81 | 46 | 1.0 | 2.0 | 0.00 | 0.73 | 0.73 | 79 | 1010.7 |
| 20260905181042 | 81 | 39 | 0.0 | 3.0 | 0.00 | 0.73 | 0.73 | 78 | 1010.7 |
| 20260905180602 | 81 | 39 | 1.0 | 3.0 | 0.00 | 0.73 | 0.73 | 78 | 1010.7 |
| 20260905180048 | 81 | 127 | 1.0 | 4.0 | 0.00 | 0.73 | 0.73 | 78 | 1010.7 |
| 20260905175037 | 80 | 342 | 2.0 | 4.0 | 0.00 | 0.74 | 0.73 | 79 | 1010.8 |
| 20260905174603 | 80 | 342 | 1.0 | 4.0 | 0.00 | 0.74 | 0.73 | 80 | 1010.8 |
| 20260905173534 | 80 | 336 | 1.0 | 5.0 | 0.00 | 0.74 | 0.73 | 79 | 1011.0 |
| 20260905173053 | 80 | 336 | 1.0 | 5.0 | 0.00 | 0.74 | 0.73 | 80 | 1011.0 |
| 20260905172023 | 79 | 344 | 1.0 | 4.0 | 0.00 | 0.74 | 0.73 | 81 | 1011.1 |
| 20260905171544 | 79 | 342 | 0.0 | 5.0 | 0.00 | 0.74 | 0.73 | 81 | 1011.1 |
| 20260905171047 | 79 | 336 | 2.0 | 5.0 | 0.00 | 0.74 | 0.73 | 82 | 1011.1 |
| 20260905170607 | 79 | 13 | 1.0 | 5.0 | 0.00 | 0.74 | 0.73 | 82 | 1011.1 |
| 20260905165521 | 79 | 114 | 1.0 | 6.0 | 0.00 | 0.75 | 0.73 | 84 | 1011.1 |
| 20260905165039 | 79 | 331 | 3.0 | 6.0 | 0.00 | 0.75 | 0.73 | 84 | 1011.1 |
| 20260905164549 | 78 | 311 | 1.0 | 6.0 | 0.00 | 0.75 | 0.73 | 84 | 1011.1 |
| 20260905163540 | 78 | 160 | 1.0 | 4.0 | 0.00 | 0.75 | 0.73 | 85 | 1011.2 |
| 20260905163047 | 77 | 48 | 1.0 | 5.0 | 0.00 | 0.75 | 0.73 | 86 | 1011.2 |
| 20260905162035 | 77 | 291 | 1.0 | 6.0 | 0.00 | 0.75 | 0.73 | 86 | 1011.1 |
| 20260905161554 | 77 | 326 | 3.0 | 6.0 | 0.00 | 0.75 | 0.73 | 86 | 1011.1 |
| 20260905161034 | 77 | 315 | 2.0 | 4.0 | 0.00 | 0.75 | 0.73 | 87 | 1011.1 |
| 20260905160558 | 77 | 40 | 1.0 | 4.0 | 0.00 | 0.75 | 0.73 | 88 | 1011.1 |
| 20260905155527 | 77 | 95 | 2.0 | 4.0 | 0.00 | 0.75 | 0.73 | 88 | 1010.9 |
| 20260905155038 | 77 | 338 | 2.0 | 4.0 | 0.00 | 0.75 | 0.73 | 88 | 1010.9 |
| 20260905154019 | 77 | 292 | 2.0 | 4.0 | 0.00 | 0.75 | 0.73 | 89 | 1010.8 |
| 20260905153540 | 76 | 122 | 1.0 | 4.0 | 0.00 | 0.75 | 0.73 | 91 | 1010.8 |
| 20260905152531 | 75 | 105 | 1.0 | 4.0 | 0.00 | 0.75 | 0.73 | 92 | 1010.7 |
| 20260905152051 | 75 | 63 | 2.0 | 4.0 | 0.00 | 0.75 | 0.73 | 92 | 1010.7 |
| 20260905151552 | 75 | 130 | 0.0 | 4.0 | 0.00 | 0.75 | 0.73 | 92 | 1010.7 |
| 20260905151045 | 75 | 130 | 2.0 | 4.0 | 0.00 | 0.75 | 0.73 | 93 | 1010.8 |
| 20260905150538 | 75 | 99 | 1.0 | 3.0 | 0.00 | 0.75 | 0.73 | 94 | 1010.8 |
| 20260905150043 | 74 | 99 | 2.0 | 3.0 | 0.00 | 0.75 | 0.73 | 95 | 1010.8 |
| 20260905145540 | 74 | 99 | 1.0 | 2.0 | 0.00 | 0.75 | 0.73 | 95 | 1010.7 |
| 20260905144535 | 73 | 99 | 1.0 | 3.0 | 0.00 | 0.75 | 0.73 | 96 | 1010.7 |
| 20260905144042 | 73 | 99 | 1.0 | 3.0 | 0.00 | 0.75 | 0.73 | 96 | 1010.6 |
| 20260905143606 | 72 | 190 | 1.0 | 3.0 | 0.00 | 0.75 | 0.73 | 96 | 1010.6 |